EW0975 Weather Reports


Display with metric or nautical units.
time (UTC)temp
F
wind
direction
speed
MPH
gust
MPH
rain 1hr
in
rain 24hr
in
rain mn
in
humidity
%
barometer
mb
20260504151003 72 174 9.0 21.0 0.00 0.12 0.12 60 1005.4
20260504150503 71 164 7.0 21.0 0.00 0.12 0.12 61 1005.4
20260504141003 66 159 6.0 10.0 0.00 0.12 0.12 75 1005.1
20260504140503 65 158 6.0 10.0 0.00 0.12 0.12 77 1005.0
20260504130503 60 172 6.0 14.0 0.01 0.12 0.12 80 1004.9
20260504110503 56 143 1.0 6.0 0.00 0.11 0.11 88 1004.9
20260504100503 56 155 2.0 7.0 0.00 0.11 0.11 89 1005.8
20260504082003 56 299 0.0 2.0 0.01 0.11 0.11 88 1007.0
20260504081524 56 354 0.0 2.0 0.01 0.11 0.11 87 1007.2
20260504081003 56 5 1.0 3.0 0.02 0.11 0.11 87 1007.1
20260504080503 56 140 1.0 4.0 0.03 0.11 0.11 88 1006.9
20260504050503 56 342 0.0 2.0 0.00 0.00 0.00 80 1008.5
20260504050003 56 0 0.0 0.0 0.00 0.00 0.00 79 1008.2
20260504045503 56 0 0.0 0.0 0.00 0.00 0.00 79 1008.1
20260504045003 56 0 0.0 0.0 0.00 0.00 0.00 79 1008.0
20260504044524 56 0 0.0 0.0 0.00 0.00 0.00 78 1007.7
20260504044003 56 0 0.0 0.0 0.00 0.00 0.00 78 1007.6
20260504043503 56 343 0.0 1.0 0.00 0.00 0.00 78 1007.7
20260504043024 56 343 0.0 1.0 0.00 0.00 0.00 78 1007.6
20260504042503 56 343 0.0 1.0 0.00 0.00 0.00 78 1007.9
20260504042024 57 0 0.0 0.0 0.00 0.00 0.00 78 1008.1
20260504041503 57 0 0.0 0.0 0.00 0.00 0.00 77 1008.1
20260504041004 57 0 0.0 0.0 0.00 0.00 0.00 77 1008.1
20260504040503 58 0 0.0 0.0 0.00 0.00 0.00 76 1008.5
20260504040024 58 0 0.0 0.0 0.00 0.00 0.00 76 1008.3
20260504035503 58 0 0.0 0.0 0.00 0.00 0.00 75 1008.7
20260504035003 58 0 0.0 0.0 0.00 0.00 0.00 75 1008.7
20260504034503 58 0 0.0 0.0 0.00 0.00 0.00 75 1008.7
20260504034003 58 343 0.0 1.0 0.00 0.00 0.00 74 1008.7
20260504033504 58 343 0.0 1.0 0.00 0.00 0.00 73 1008.6
20260504033003 59 343 0.0 1.0 0.00 0.00 0.00 72 1008.7
20260504032503 59 0 0.0 0.0 0.00 0.00 0.00 71 1009.1
20260504032003 59 0 0.0 0.0 0.00 0.00 0.00 70 1009.0
20260504031503 60 0 0.0 0.0 0.00 0.00 0.00 70 1008.9
20260504031003 60 0 0.0 0.0 0.00 0.00 0.00 68 1008.7
20260504030503 61 0 0.0 0.0 0.00 0.00 0.00 67 1008.6
20260504030003 62 0 0.0 0.0 0.00 0.00 0.00 66 1009.0
20260504025503 62 0 0.0 0.0 0.00 0.00 0.00 64 1008.8
20260504025003 63 0 0.0 0.0 0.00 0.00 0.00 62 1009.1
20260504024503 63 0 0.0 0.0 0.00 0.00 0.00 62 1008.9
20260504024003 63 0 0.0 0.0 0.00 0.00 0.00 62 1008.8
20260504023524 64 0 0.0 0.0 0.00 0.00 0.00 61 1008.7
20260504023003 64 0 0.0 0.0 0.00 0.00 0.00 61 1008.7
20260504022503 64 0 0.0 0.0 0.00 0.00 0.00 60 1008.7
20260504022003 64 0 0.0 1.0 0.00 0.00 0.00 60 1008.6
20260504021503 65 343 0.0 1.0 0.00 0.00 0.00 60 1008.5
20260504021003 65 343 0.0 2.0 0.00 0.00 0.00 60 1008.6
20260504020503 65 333 1.0 2.0 0.00 0.00 0.00 59 1008.7
20260504020003 66 327 1.0 2.0 0.00 0.00 0.00 59 1008.7
20260504015524 66 323 1.0 2.0 0.00 0.00 0.00 59 1008.8
20260504015003 66 320 1.0 2.0 0.00 0.00 0.00 58 1008.5
20260504014503 66 1 0.0 2.0 0.00 0.00 0.00 58 1008.5
20260504014003 67 18 0.0 4.0 0.00 0.00 0.00 58 1008.2
20260504013503 67 354 1.0 4.0 0.00 0.00 0.00 58 1008.3
20260504013003 67 336 1.0 3.0 0.00 0.00 0.00 57 1008.8
20260504012503 67 334 1.0 3.0 0.00 0.00 0.00 57 1008.6
20260504012003 67 326 1.0 3.0 0.00 0.00 0.00 57 1008.7
20260504011503 68 337 1.0 6.0 0.00 0.00 0.00 56 1008.5
20260504011003 68 338 1.0 6.0 0.00 0.00 0.00 56 1008.4
20260504010503 68 323 1.0 3.0 0.00 0.00 0.00 56 1008.5
20260504010024 68 314 1.0 3.0 0.00 0.00 0.00 56 1008.6
20260504005503 69 313 1.0 3.0 0.00 0.00 0.00 55 1008.0
20260504005004 69 313 1.0 2.0 0.00 0.00 0.00 54 1008.0
20260504004503 70 313 0.0 1.0 0.00 0.00 0.00 53 1007.7
20260504004024 70 313 0.0 2.0 0.00 0.00 0.00 52 1008.1
20260504003503 71 313 0.0 2.0 0.00 0.00 0.00 52 1007.9
20260504003003 71 313 0.0 2.0 0.00 0.00 0.00 51 1007.9
20260504002503 72 313 0.0 1.0 0.00 0.00 0.00 49 1008.1
20260504002003 72 321 0.0 2.0 0.00 0.00 0.00 49 1008.0
20260504001503 72 313 1.0 2.0 0.00 0.00 0.00 48 1008.0
20260504001003 73 302 2.0 4.0 0.00 0.00 0.00 47 1008.1
20260504000503 73 305 2.0 4.0 0.00 0.00 0.00 47 1008.0
20260504000003 73 296 2.0 9.0 0.00 0.00 0.00 47 1008.2
20260503235503 74 299 3.0 9.0 0.00 0.00 0.00 46 1008.5
20260503235003 74 306 3.0 9.0 0.00 0.00 0.00 46 1008.4
20260503234503 74 281 3.0 9.0 0.00 0.00 0.00 45 1008.3
20260503234003 74 281 3.0 9.0 0.00 0.00 0.00 44 1008.0
20260503233503 74 307 3.0 9.0 0.00 0.00 0.00 45 1008.2
20260503233003 74 313 3.0 9.0 0.00 0.00 0.00 46 1008.3
20260503232503 74 293 3.0 8.0 0.00 0.00 0.00 46 1008.4
20260503232003 74 281 3.0 8.0 0.00 0.00 0.00 45 1008.2
20260503231524 74 271 4.0 10.0 0.00 0.00 0.00 45 1008.2
20260503231003 74 289 4.0 13.0 0.00 0.00 0.00 44 1008.4
20260503230524 74 300 4.0 13.0 0.00 0.00 0.00 44 1008.6
20260503230024 75 273 4.0 11.0 0.00 0.00 0.00 44 1008.5
20260503225503 75 263 4.0 14.0 0.00 0.00 0.00 43 1007.9
20260503225024 75 254 5.0 15.0 0.00 0.00 0.00 43 1007.6
20260503224503 75 261 5.0 15.0 0.00 0.00 0.00 42 1007.9
20260503224003 75 298 4.0 11.0 0.00 0.00 0.00 43 1008.1
20260503223503 75 314 4.0 11.0 0.00 0.00 0.00 43 1008.2
20260503223003 75 304 4.0 11.0 0.00 0.00 0.00 43 1008.5
20260503222503 75 276 4.0 15.0 0.00 0.00 0.00 42 1008.3
20260503222003 75 252 4.0 15.0 0.00 0.00 0.00 42 1008.1
20260503221525 75 253 4.0 16.0 0.00 0.00 0.00 42 1008.1
20260503221003 75 259 4.0 16.0 0.00 0.00 0.00 42 1008.2
20260503220503 75 247 6.0 19.0 0.00 0.00 0.00 41 1008.7
20260503220024 76 244 6.0 19.0 0.00 0.00 0.00 39 1008.5
20260503215503 76 239 6.0 23.0 0.00 0.00 0.00 38 1008.4
20260503215003 76 245 6.0 23.0 0.00 0.00 0.00 40 1008.4
20260503214503 76 244 6.0 23.0 0.00 0.00 0.00 39 1008.6
20260503214003 76 227 5.0 15.0 0.00 0.00 0.00 38 1008.7
20260503213503 76 236 7.0 19.0 0.00 0.00 0.00 40 1008.9
20260503213003 76 233 7.0 19.0 0.00 0.00 0.00 38 1008.7
20260503212503 76 232 6.0 19.0 0.00 0.00 0.00 38 1008.9
20260503212024 76 235 5.0 19.0 0.00 0.00 0.00 39 1008.7
20260503211503 76 213 6.0 19.0 0.00 0.00 0.00 39 1008.8
20260503211003 76 221 6.0 17.0 0.00 0.00 0.00 40 1008.7
20260503210503 76 240 5.0 14.0 0.00 0.00 0.00 39 1009.0
20260503210024 76 212 6.0 16.0 0.00 0.00 0.00 40 1009.3
20260503205503 75 182 7.0 17.0 0.00 0.00 0.00 39 1009.1
20260503205003 75 173 7.0 17.0 0.00 0.00 0.00 40 1009.3
20260503204503 75 178 7.0 23.0 0.00 0.00 0.00 40 1009.1
20260503204003 75 182 7.0 23.0 0.00 0.00 0.00 39 1009.1
20260503203503 75 197 6.0 23.0 0.00 0.00 0.00 38 1009.2
20260503203003 76 211 6.0 16.0 0.00 0.00 0.00 36 1009.8
20260503202503 76 214 5.0 14.0 0.00 0.00 0.00 39 1009.6
20260503202024 76 222 6.0 14.0 0.00 0.00 0.00 37 1009.7
20260503201503 76 203 6.0 16.0 0.00 0.00 0.00 39 1009.6
20260503201003 75 182 6.0 16.0 0.00 0.00 0.00 40 1009.8
20260503200503 75 191 6.0 16.0 0.00 0.00 0.00 39 1009.9
20260503200024 74 219 5.0 16.0 0.00 0.00 0.00 39 1010.1
20260503195503 74 189 7.0 17.0 0.00 0.00 0.00 38 1010.1
20260503195024 74 166 8.0 18.0 0.00 0.00 0.00 41 1010.1
20260503194503 73 187 6.0 18.0 0.00 0.00 0.00 42 1010.4
20260503194003 72 182 6.0 18.0 0.00 0.00 0.00 41 1010.4
20260503193524 72 169 8.0 18.0 0.00 0.00 0.00 39 1010.5
20260503193003 72 168 8.0 19.0 0.00 0.00 0.00 41 1010.2
20260503192503 72 166 8.0 19.0 0.00 0.00 0.00 41 1010.6
20260503192003 71 166 8.0 22.0 0.00 0.00 0.00 42 1010.4
20260503191503 71 166 8.0 22.0 0.00 0.00 0.00 41 1010.6
20260503191003 71 169 9.0 24.0 0.00 0.00 0.00 41 1010.7
20260503190503 70 169 9.0 24.0 0.00 0.00 0.00 42 1010.8
20260503190003 70 174 9.0 22.0 0.00 0.00 0.00 41 1011.0
20260503185503 70 174 10.0 22.0 0.00 0.00 0.00 41 1011.1
20260503185003 69 172 8.0 19.0 0.00 0.00 0.00 43 1011.3
20260503184503 69 173 6.0 15.0 0.00 0.00 0.00 45 1011.4
20260503184003 68 176 7.0 17.0 0.00 0.00 0.00 44 1011.2
20260503183503 68 180 8.0 17.0 0.00 0.00 0.00 44 1011.2
20260503183004 68 177 8.0 21.0 0.00 0.00 0.00 43 1011.4
20260503182503 68 173 9.0 21.0 0.00 0.00 0.00 42 1011.1
20260503182003 69 167 10.0 19.0 0.00 0.00 0.00 40 1011.1
20260503181504 69 167 10.0 19.0 0.00 0.00 0.00 40 1011.0
20260503181003 69 164 9.0 22.0 0.00 0.00 0.00 41 1010.8
20260503180503 69 158 11.0 22.0 0.00 0.00 0.00 39 1011.2
20260503180004 69 170 10.0 21.0 0.00 0.00 0.00 41 1011.4
20260503175503 68 182 9.0 22.0 0.00 0.00 0.00 42 1011.5
20260503175003 68 171 11.0 25.0 0.00 0.00 0.00 42 1012.1
20260503174524 69 164 12.0 25.0 0.00 0.00 0.00 41 1012.2
20260503174003 69 163 10.0 22.0 0.00 0.00 0.00 41 1012.3
20260503173504 68 162 8.0 17.0 0.00 0.00 0.00 45 1012.4
20260503173024 67 162 10.0 21.0 0.00 0.00 0.00 44 1012.9
20260503172504 67 165 10.0 21.0 0.00 0.00 0.00 44 1012.9
20260503172003 67 168 9.0 21.0 0.00 0.00 0.00 42 1013.0
20260503171503 67 164 9.0 21.0 0.00 0.00 0.00 44 1013.1
20260503171003 67 168 9.0 22.0 0.00 0.00 0.00 43 1013.4
20260503170503 67 177 9.0 22.0 0.00 0.00 0.00 41 1013.6